Location: Buckeye Ditch
(40.9104°N, 122.9517°W)
Time: 14:54:16
(UTC+00:00)

A-11 Canister half - Pass Details

Date: 26 May 2025
Orbit: 1515 x 1684 km, 47.2° (Epoch: 14 June)

Event Time Altitude Azimuth Distance (km) Brightness Sun altitude
Rises 07:35:40 0° 260° (W) 4,793 11.6 -27.4°
Reaches altitude 10° 07:38:51 10° 263° (W) 3,785 11.0 -27.5°
Maximum altitude 07:48:22 66° 346° (NNW) 1,662 9.3 -27.7°
Drops below altitude 10° 07:57:38 10° 68° (ENE) 3,687 11.2 -27.8°
Sets 08:00:41 0° 72° (ENE) 4,662 11.7 -27.9°
